Location: Unspecified
(49.9820°N, 20.4363°E)
Time: 06:31:37
(UTC+02:00)

ISS - Pass Details

Date: 16 March 2018
Orbit: 402 x 407 km, 51.6° (Epoch: 25 June)

Event Time Altitude Azimuth Distance (km) Brightness Sun altitude
Exits shadow 03:51:17 75° 174° (S) 430 -3.9 -19.6°
Drops below altitude 10° 03:54:29 10° 114° (ESE) 1,475 -0.4 -19.1°
Enters shadow 04:50:52 -68° 306° (NW) 12,233 3.6 -10.4°
